Location: LDNL
(36.4545°S, 141.6685°E)
Time: 21:35:11
(UTC+10:00)

N. Korean satellite - Visible Passes

Search period start: 31 May 2020 00:00
Search period end: 10 June 2020 00:00
Orbit: 455 x 505 km, 97.2° (Epoch: 30 May)

Date Brightness Start Highest point End Pass type
(mag) Time Alt. Az. Time Alt. Az. Time Alt. Az.
31 May 8.3 05:22:27 10° NNE 05:24:17 28° NNE 05:24:17 28° NNE visible
31 May 7.1 18:24:23 10° S 18:27:50 59° WSW 18:31:15 10° NNW visible
01 Jun 9.3 04:57:12 10° NE 04:58:12 16° NE 04:58:12 16° NE visible
01 Jun 8.8 06:32:01 10° WNW 06:32:28 11° WNW 06:32:28 11° WNW visible
01 Jun 6.6 17:58:40 10° SSE 18:02:06 54° E 18:05:31 10° N visible
02 Jun 8.2 06:04:48 10° NNW 06:06:23 20° NW 06:06:23 20° NW visible
02 Jun 9.4 19:07:15 10° SSW 19:09:27 16° WSW 19:11:38 10° WNW visible
03 Jun 8.1 05:38:35 10° N 05:40:18 26° N 05:40:18 26° N visible
03 Jun 8.2 18:40:41 10° S 18:43:53 34° WSW 18:47:03 10° NW visible
04 Jun 8.9 05:12:58 10° NNE 05:14:13 20° NE 05:14:13 20° NE visible
04 Jun 6.5 18:14:41 10° S 18:18:13 83° W 18:21:41 10° NNW visible
05 Jun 9.8 04:47:58 10° NE 04:48:08 11° ENE 04:48:08 11° ENE visible
05 Jun 8.7 06:21:41 10° NW 06:22:24 13° NW 06:22:24 13° NW visible
05 Jun 7.0 17:49:07 10° SSE 17:52:26 39° E 17:55:43 10° N visible
06 Jun 8.3 05:54:56 10° NNW 05:56:19 20° NNW 05:56:19 20° NNW visible
06 Jun 9.0 18:57:10 10° SSW 18:59:51 21° WSW 19:02:33 10° WNW visible
07 Jun 8.6 05:28:56 10° NNE 05:30:13 21° NNE 05:30:13 21° NNE visible
07 Jun 7.5 18:30:51 10° S 18:34:14 46° WSW 18:37:36 10° NNW visible
08 Jun 9.4 05:03:31 10° NE 05:04:08 14° NE 05:04:08 14° NE visible
08 Jun 6.4 18:05:01 10° SSE 18:08:32 70° ENE 18:12:01 10° N visible
09 Jun 8.7 06:11:33 10° NNW 06:12:18 14° NW 06:12:18 14° NW visible
09 Jun 9.5 19:14:01 10° SW 19:15:47 13° WSW 19:17:33 10° W visible
